[[{"header":{"parameterUnit":"m.s-1","parameterCategory":1,"la1":30.2991,"la2":30.254,"lo1":-89.0895,"lo2":-89.0444,"dy":0.0017,"dx":0.0017,"nx":28,"ny":28,"refTime":"2024-03-08T09:00:00:Z","depth":0,"parameterNumber":2,"parameterNumberName":"U-component_of_WINDS"},"data":[0,0,0,0,0,0,0,0,0,0,0,0,0,0,0,0,0,0,0,0,0,0,0,0,0,0,0,0,0,0,0,0,0,0,0,0,0,0,0,0,0,0,0,0,0,0,0,0,0,0,0,0,0,0,0,0,0,0,1.7109,1.7108,0,1.7074,1.7074,1.7073,1.7017,1.7016,1.7015,1.7014,1.698,1.6981,1.6981,0,0,0,0,0,0,0,0,0,0,0,0,0,1.7128,1.7128,1.7109,1.7108,1.7108,1.7074,1.7074,1.7073,1.7017,1.7016,1.7015,1.7014,1.698,1.6981,1.6981,0,0,0,0,0,0,0,0,0,0,0,0,0,1.7109,1.7128,1.7109,1.7076,1.7073,1.7074,1.7074,1.7073,1.7018,1.7016,1.7015,1.7013,1.698,1.6981,1.6981,1.7012,0,0,1.6981,1.6981,0,0,0,0,0,0,0,0,1.711,1.7109,1.7081,1.7078,1.7075,1.7048,1.7068,1.7053,1.7018,1.7039,1.7014,1.7012,1.7004,1.7002,1.6999,1.701,1.7009,1.6981,1.6981,1.6981,1.6981,0,0,0,0,0,0,0,1.7112,1.711,1.7095,1.7081,1.7077,1.7063,1.7059,1.7065,1.7031,1.7037,1.7033,1.7029,1.7002,1.6999,1.6998,1.7008,1.6981,1.6981,1.6981,1.6981,1.7043,1.7045,0,0,0,0,0,0,1.7118,1.7111,1.7096,1.7094,1.7089,1.7064,1.7059,1.7058,1.703,1.7025,1.7031,1.7027,1.7,1.6998,1.6997,1.7032,1.6981,1.6981,1.6981,1.7042,1.7044,1.7046,0,0,0,0,0,0,1.7118,1.7117,1.7098,1.7102,1.7098,1.7066,1.7065,1.7059,1.7056,1.7026,1.7019,1.7034,1.6999,1.6997,1.7008,1.703,1.6981,1.6981,1.704,1.7042,1.7045,1.7102,0,0,0,0,0,0,1.7119,1.7118,1.7129,1.7102,1.7098,1.711,1.7066,1.7059,1.7056,1.705,1.7027,1.7022,1.6997,1.7009,1.7009,1.7029,1.6981,1.7038,1.7041,1.7044,1.7098,1.7106,1.7113,0,0,0,0,0,1.712,1.7147,1.713,1.7128,1.7111,1.7111,1.7109,1.708,1.7058,1.7069,1.705,1.7023,1.7027,1.701,1.701,1.7031,1.7036,1.704,1.7044,1.7095,1.7105,1.7113,0,0,0,0,0,0,1.7178,1.7143,1.7123,1.7142,1.713,1.7102,1.7115,1.7091,1.7085,1.708,1.7045,1.704,1.7057,1.7045,1.7026,1.7059,1.7028,1.7031,1.7067,1.7076,1.7083,1.7086,1.6981,0,0,0,0,0,1.7192,1.7194,1.7164,1.7184,1.7178,1.7148,1.7147,1.7125,1.7111,1.7106,1.7088,1.7076,1.7074,1.7074,1.7071,1.7096,1.709,1.711,1.7117,1.7124,1.7128,1.714,1.7148,1.7057,1.7057,1.7057,0,0,1.7223,1.7204,1.7208,1.7195,1.7183,1.7186,1.7144,1.7149,1.7152,1.7107,1.7117,1.7103,1.7087,1.7106,1.7113,1.7096,1.7151,1.7128,1.7133,1.7134,1.7144,1.7153,1.7161,1.706,1.7059,1.7059,0,0,1.7281,1.7267,1.7282,1.727,1.7252,1.7232,1.7235,1.721,1.7199,1.7209,1.7175,1.7177,1.7176,1.7166,1.7161,1.7215,1.719,1.7215,1.7254,1.7266,1.7273,1.7279,1.7299,1.7306,1.7218,1.7219,1.7219,0,1.7322,1.7325,1.7292,1.73,1.7295,1.7254,1.7269,1.7259,1.7242,1.724,1.7221,1.7218,1.7205,1.722,1.7233,1.723,1.7234,1.7218,1.7275,1.7281,1.7286,1.7304,1.7312,1.7222,1.7221,1.7221,1.7221,0,1.7376,1.7379,1.7393,1.7376,1.7373,1.7385,1.7354,1.7355,1.7333,1.7315,1.7325,1.7307,1.73,1.7302,1.7282,1.7315,1.7305,1.7281,1.7249,1.7298,1.7315,1.7322,1.7226,1.7225,1.7224,1.7223,0,0,1.747,1.7435,1.744,1.7432,1.7409,1.7411,1.742,1.7413,1.7414,1.7403,1.7411,1.741,1.7388,1.7382,1.736,1.7371,1.7415,1.7345,1.7344,1.7359,1.7451,1.7469,1.7478,1.7398,1.7399,1.74,1.7452,0,1.7523,1.7537,1.7508,1.7529,1.7531,1.7492,1.75,1.7487,1.747,1.747,1.7451,1.7451,1.7422,1.7418,1.7427,1.7408,1.7433,1.7403,1.7405,1.7405,1.7411,1.7486,1.7506,1.7556,1.7458,1.7459,1.746,0,1.7588,1.758,1.7601,1.7576,1.7576,1.7584,1.7575,1.7575,1.7559,1.7546,1.754,1.7513,1.7521,1.7489,1.75,1.7481,1.7479,1.747,1.7471,1.7471,1.7436,1.7489,1.7571,1.7579,1.747,1.7469,1.7468,0,1.7655,1.7649,1.7661,1.7655,1.7627,1.7633,1.7622,1.7605,1.7602,1.7594,1.7592,1.7585,1.7581,1.7577,1.755,1.7529,1.7564,1.753,1.7554,1.7554,1.7563,1.7563,1.7648,1.7562,1.7562,1.7561,1.7561,0,1.7718,1.7732,1.769,1.7698,1.7713,1.7679,1.7695,1.768,1.7665,1.7669,1.7635,1.7639,1.7603,1.7604,1.7582,1.7595,1.7593,1.7583,1.7577,1.7587,1.7588,1.7586,1.7582,1.7563,1.7563,1.7563,1.7562,0,1.7795,1.7767,1.7778,1.775,1.7743,1.7756,1.7732,1.7738,1.7718,1.7724,1.7723,1.7693,1.7692,1.7664,1.7658,1.7643,1.7665,1.7652,1.767,1.7666,1.7692,1.769,1.7779,1.7789,1.7696,1.7697,1.7698,0,1.7838,1.7848,1.7821,1.7821,1.7811,1.7811,1.7808,1.7775,1.7773,1.7756,1.7765,1.7761,1.7756,1.7756,1.7734,1.7729,1.7716,1.7748,1.7715,1.7724,1.7717,1.7717,1.7718,1.7755,1.7756,1.7757,1.7758,0,1.7916,1.7901,1.7898,1.789,1.7887,1.7879,1.7869,1.7871,1.7835,1.7835,1.7833,1.7829,1.7822,1.7819,1.781,1.7798,1.7773,1.7768,1.7773,1.7783,1.7793,1.7788,1.7689,1.7766,1.7765,1.7765,1.7764,1.7764,1.7977,1.7984,1.7966,1.7964,1.7953,1.7944,1.7948,1.7929,1.7927,1.7918,1.7899,1.7901,1.7885,1.7869,1.786,1.7861,1.7845,1.7853,1.7855,1.7858,1.7863,1.7792,1.7859,1.7859,1.7859,1.7858,1.7858,0,1.8054,1.804,1.8038,1.8025,1.8023,1.7998,1.7985,1.7986,1.7987,1.7974,1.797,1.7968,1.7965,1.7942,1.7936,1.7942,1.793,1.7941,1.7941,1.7939,1.7877,1.7873,1.7951,1.7951,1.7951,1.7951,1.7951,1.7951,1.8094,1.8105,1.8088,1.8094,1.808,1.8081,1.8076,1.8068,1.8057,1.8057,1.8054,1.8038,1.8022,1.8014,1.801,1.8004,1.8003,1.8019,1.8009,1.7952,1.7943,1.7935,1.7931,1.8019,1.8019,1.807,1.8071,1.8071]},{"header":{"parameterUnit":"m.s-1","parameterCategory":1,"la1":30.2991,"la2":30.254,"lo1":-89.0895,"lo2":-89.0444,"dy":0.0017,"dx":0.0017,"nx":28,"ny":28,"refTime":"2024-03-08T09:00:00:Z","depth":0,"parameterNumber":3,"parameterNumberName":"V-component_of_WINDS"},"data":[0,0,0,0,0,0,0,0,0,0,0,0,0,0,0,0,0,0,0,0,0,0,0,0,0,0,0,0,0,0,0,0,0,0,0,0,0,0,0,0,0,0,0,0,0,0,0,0,0,0,0,0,0,0,0,0,0,0,5.3554,5.3555,0,5.3667,5.3669,5.367,5.3664,5.3662,5.3661,5.3659,5.3775,5.3779,5.3784,0,0,0,0,0,0,0,0,0,0,0,0,0,5.3332,5.3336,5.3554,5.3555,5.3557,5.3667,5.3669,5.367,5.3664,5.3662,5.366,5.3658,5.3773,5.3779,5.3784,0,0,0,0,0,0,0,0,0,0,0,0,0,5.3435,5.3337,5.3553,5.3567,5.3569,5.3667,5.3669,5.3671,5.3665,5.3662,5.366,5.3658,5.3772,5.3778,5.3785,5.3877,0,0,5.3806,5.3809,0,0,0,0,0,0,0,0,5.3429,5.3443,5.3564,5.3566,5.3569,5.3649,5.3633,5.374,5.3665,5.3628,5.3659,5.3656,5.3735,5.3745,5.3771,5.3882,5.3887,5.3807,5.3811,5.3814,5.3816,0,0,0,0,0,0,0,5.3422,5.3438,5.3599,5.3565,5.3569,5.3567,5.3579,5.3653,5.3694,5.3631,5.3631,5.3645,5.3736,5.3765,5.3774,5.3889,5.3807,5.3813,5.3817,5.382,5.4082,5.4085,0,0,0,0,0,0,5.3412,5.3432,5.3595,5.3602,5.3492,5.3573,5.3587,5.3626,5.3693,5.3701,5.3647,5.3644,5.3754,5.3766,5.3778,5.3892,5.3814,5.382,5.3824,5.408,5.4083,5.4086,0,0,0,0,0,0,5.3407,5.3427,5.359,5.3517,5.3538,5.358,5.3624,5.3629,5.3658,5.3705,5.3712,5.3669,5.3753,5.3768,5.3853,5.3896,5.3823,5.383,5.4076,5.4081,5.4085,5.4119,0,0,0,0,0,0,5.3401,5.3425,5.346,5.3518,5.3542,5.3663,5.3626,5.3633,5.367,5.3668,5.3727,5.3735,5.3752,5.3842,5.386,5.3904,5.3835,5.4073,5.4078,5.4083,5.4114,5.4123,5.4132,0,0,0,0,0,5.3393,5.3464,5.3462,5.3481,5.3587,5.3666,5.3679,5.3698,5.3673,5.371,5.374,5.3733,5.3888,5.3851,5.387,5.3917,5.407,5.4077,5.4083,5.411,5.4122,5.4131,0,0,0,0,0,0,5.3409,5.3472,5.347,5.3562,5.3609,5.3665,5.371,5.3709,5.3764,5.3759,5.3779,5.3793,5.3878,5.3906,5.3864,5.4011,5.3976,5.3986,5.399,5.4001,5.401,5.4003,5.3841,0,0,0,0,0,5.3424,5.3483,5.3534,5.361,5.3634,5.3668,5.3703,5.3714,5.3763,5.3782,5.3818,5.3866,5.3926,5.3965,5.4022,5.4117,5.4131,5.4159,5.4168,5.4175,5.4184,5.4239,5.4253,5.4107,5.4107,5.4107,0,0,5.3454,5.3495,5.3531,5.3615,5.3652,5.3714,5.3685,5.375,5.3796,5.3792,5.3875,5.3903,5.3958,5.4049,5.409,5.4074,5.4228,5.4183,5.4188,5.4194,5.4247,5.4261,5.4273,5.4111,5.4111,5.411,0,0,5.3541,5.3577,5.3646,5.3685,5.3742,5.3764,5.3781,5.3837,5.3857,5.394,5.3939,5.3993,5.4095,5.4135,5.4168,5.4272,5.4268,5.4289,5.4337,5.439,5.4402,5.4412,5.4451,5.4465,5.4298,5.4298,5.4298,0,5.3571,5.3664,5.3682,5.3749,5.3786,5.3786,5.3856,5.3892,5.3965,5.3991,5.3972,5.4101,5.4138,5.4239,5.4265,5.4291,5.4311,5.4284,5.4398,5.4409,5.4419,5.4457,5.4471,5.4301,5.43,5.43,5.43,0,5.37,5.3764,5.3813,5.3884,5.3927,5.3995,5.4024,5.4065,5.4072,5.4096,5.4182,5.4226,5.4293,5.4317,5.4324,5.4421,5.4409,5.4394,5.436,5.4435,5.4471,5.4485,5.4304,5.4303,5.4303,5.4302,0,0,5.3801,5.3883,5.39,5.3934,5.3997,5.4048,5.4116,5.4182,5.4218,5.4268,5.4328,5.4414,5.4401,5.4439,5.445,5.4496,5.4579,5.4476,5.4477,5.4496,5.469,5.4703,5.472,5.4576,5.4579,5.4581,5.4687,0,5.3896,5.4019,5.4038,5.4146,5.4207,5.4207,5.4267,5.4313,5.4338,5.4393,5.442,5.4482,5.4459,5.4482,5.4528,5.4559,5.4618,5.4551,5.4633,5.4635,5.4622,5.4738,5.4752,5.485,5.4701,5.4703,5.4705,0,5.4024,5.408,5.4194,5.4252,5.4278,5.4331,5.4395,5.4447,5.4499,5.4514,5.4557,5.4563,5.4635,5.4596,5.4697,5.4651,5.4685,5.4705,5.4709,5.472,5.4676,5.4754,5.4881,5.4897,5.4726,5.4725,5.4723,0,5.409,5.4193,5.4275,5.4303,5.4372,5.441,5.444,5.449,5.4529,5.4584,5.461,5.4672,5.4707,5.4755,5.4778,5.4747,5.4878,5.484,5.4894,5.4893,5.4923,5.4921,5.506,5.4941,5.494,5.494,5.494,0,5.4197,5.4267,5.4306,5.4357,5.4437,5.4457,5.4535,5.4564,5.4609,5.4666,5.4669,5.4722,5.4748,5.4806,5.4824,5.4906,5.492,5.4935,5.494,5.4937,5.4935,5.4961,5.4956,5.4944,5.4943,5.4942,5.4942,0,5.4284,5.4313,5.4403,5.4461,5.4477,5.4533,5.4583,5.4632,5.4657,5.4729,5.4747,5.4786,5.4854,5.4881,5.4964,5.4976,5.5071,5.5068,5.5054,5.5056,5.5108,5.5104,5.5271,5.5295,5.5157,5.5158,5.5159,0,5.4351,5.4406,5.447,5.4509,5.4541,5.4603,5.4643,5.4665,5.4708,5.4772,5.4815,5.4883,5.4939,5.5047,5.5083,5.5147,5.5148,5.5202,5.5157,5.5153,5.5152,5.5149,5.5156,5.521,5.5212,5.5213,5.5214,0,5.4468,5.448,5.4539,5.4604,5.4652,5.4704,5.4754,5.4785,5.4815,5.4862,5.4933,5.4976,5.5061,5.513,5.5196,5.5227,5.5227,5.5227,5.5244,5.5242,5.5233,5.5241,5.5079,5.5224,5.5223,5.5222,5.5222,5.5221,5.455,5.46,5.4653,5.4719,5.4759,5.4806,5.4857,5.4888,5.4947,5.5019,5.5028,5.5104,5.5156,5.5245,5.5278,5.5338,5.5324,5.5347,5.5353,5.5359,5.5365,5.5221,5.535,5.535,5.5349,5.5349,5.5349,0,5.467,5.4704,5.4764,5.4835,5.4888,5.4882,5.4938,5.4982,5.5049,5.5097,5.5153,5.5234,5.5301,5.5342,5.5409,5.5449,5.545,5.5466,5.5464,5.5472,5.5372,5.5352,5.5464,5.5464,5.5464,5.5464,5.5464,5.5464,5.4738,5.4823,5.4841,5.4946,5.498,5.5055,5.5088,5.5132,5.5171,5.5262,5.5318,5.5344,5.539,5.5461,5.5522,5.5532,5.5558,5.5575,5.5585,5.5491,5.5479,5.5468,5.545,5.558,5.558,5.568,5.5681,5.5682]}]]